Location: Rostock
(54.0884°N, 12.1234°E)
Time: 22:31:15
(UTC+01:00)

ISS - Visible Passes

Search period start: 25 February 2018 00:00
Search period end: 07 March 2018 00:00
Orbit: 403 x 406 km, 51.6° (Epoch: 26 February)

Date Brightness Start Highest point End Pass type
(mag) Time Alt. Az. Time Alt. Az. Time Alt. Az.
28 Feb -1.1 06:17:30 10° S 06:19:42 17° SSE 06:21:54 10° ESE visible
01 Mar -0.9 05:26:34 10° SSE 05:27:42 11° SE 05:28:50 10° ESE visible
02 Mar -1.9 06:08:33 10° SSW 06:11:21 26° SSE 06:14:10 10° E visible
03 Mar -1.5 05:17:00 11° SSW 05:19:16 19° SSE 05:21:41 10° E visible
04 Mar -1.2 04:26:55 13° SSE 04:27:12 13° SE 04:28:51 10° ESE visible
04 Mar -2.7 05:59:58 10° SW 06:03:03 38° SSE 06:06:08 10° E visible
05 Mar -2.3 05:09:24 20° SSW 05:10:52 29° SSE 05:13:46 10° E visible
06 Mar -1.7 04:19:09 21° SE 04:19:09 21° SE 04:21:17 10° E visible
06 Mar -3.2 05:51:48 12° WSW 05:54:45 49° S 05:57:57 10° E visible
